Location: Betz
(49.1556°N, 2.9558°E)
Time: 09:49:55
(UTC+00:00)

Cosmos 1544 Rocket - Pass Details

Date: 18 September 2019
Orbit: 603 x 632 km, 82.5° (Epoch: 23 October)

Event Time Altitude Azimuth Distance (km) Brightness Sun altitude
Exits shadow 20:16:54 44° 192° (SSW) 880 4.1 -22.7°
Maximum altitude 20:18:18 87° 277° (W) 641 3.5 -22.9°
Drops below altitude 10° 20:22:49 10° 9° (N) 2,024 6.5 -23.5°
Sets 20:25:04 0° 10° (N) 2,934 7.3 -23.8°
